Regional Weather Roundup
Issued by NWS

Home | Current Version | Previous Version | Graphics & Text | Print | Product List | Glossary On
Versions: 1 2 3 4 5 6 7 8 9 10 11 12 13 14 15 16 17 18 19 20 21 22 23 24 25 26 27 28 29 30 31 32 33 34 35 36 37 38 39 40 41 42 43 44 45 46 47 48 49 50
000
ASUS43 KLSX 241857
RWRMO

WEATHER SUMMARY FOR MISSOURI
NATIONAL WEATHER SERVICE SPRINGFIELD MO
200 PM CDT THU MAY 24 2018

NOTE: "FAIR" INDICATES FEW OR NO CLOUDS BELOW 12,000 FEET WITH NO
       SIGNIFICANT WEATHER AND/OR OBSTRUCTIONS TO VISIBILITY.
       CURRENT SKY AND/OR WEATHER CONDITIONS ARE NOT AVAILABLE FOR
       CHILLICOTHE AND FARMINGTON.

MOZ001>031-035>038-043-044-053-054-242000-
...NORTHERN AND WESTERN MISSOURI...

CITY           SKY/WX    TMP DP  RH WIND       PRES   REMARKS
KANSAS CTY INT CLOUDY    84  69  60 S10       30.06F
LEE`S SUMMIT   CLOUDY    81  68  64 S10       30.08S
ST JOSEPH      PTSUNNY   87  68  52 S14G25    30.03F HX  90
CHILLICOTHE      N/A     86  64  47 S8G21     30.06F

$$
MOZ066>068-077>081-088>096-101>105-242000-
...SOUTHWEST MISSOURI...

CITY           SKY/WX    TMP DP  RH WIND       PRES   REMARKS
SPRINGFIELD    MOSUNNY   84  66  54 SE8       30.09F
JOPLIN         PTSUNNY   82  71  69 VRB6      30.08F
BRANSON        MOSUNNY   82  66  57 SW3       30.12

$$
MOZ032>034-039>042-045>050-055>058-069>072-242000-
...CENTRAL MISSOURI...

CITY           SKY/WX    TMP DP  RH WIND       PRES   REMARKS
COLUMBIA       NOT AVBL
JEFFERSON CITY MOSUNNY   85  66  53 S6        30.08F
ROLLA          MOSUNNY   82  66  58 SW6       30.12F
SEDALIA        CLOUDY    85  68  56 SE9       30.09F
WARRENSBURG    CLOUDY    82  64  54 S7        30.08F

$$
MOZ051-052-059>065-242000-
...EAST CENTRAL MISSOURI...

CITY           SKY/WX    TMP DP  RH WIND       PRES   REMARKS
ST LOUIS INTL  PTSUNNY   86  61  42 VRB3      30.10F

$$
MOZ072>076-082>087-097>100-106>115-242000-
...SOUTH CENTRAL AND SOUTHEAST MISSOURI...

CITY           SKY/WX    TMP DP  RH WIND       PRES   REMARKS
CAPE GIRARDEAU FAIR      86  64  47 E9        30.08F
POPLAR BLUFF   PTSUNNY   87  67  51 NE6       30.07F HX  90
WEST PLAINS    MOSUNNY   82  67  60 VRB5      30.13F

$$




USA.gov is the U.S. government's official web portal to all federal, state and local government web resources and services.